DGVIP EDWN-EDDG

Flight info

Callsign DGVIP
Flight time 0h 47m
Altitude 10000
Route IBAGU DCT OSN IBAGU
Aircraft BT36/L-BDFGLORY/S

Departure

Time 2026-04-21 14:15
Airport Flugplatz Nordhorn-Lingen (EDWN)

Arrival

Time 2026-04-21 15:03
Airport Münster Osnabrück Airport (EDDG)
Time Latitude Longitude Altitude Speed Heading
2026-04-21 14:02 52.45837 7.17557 94 ft 0 kts 320°
2026-04-21 14:06 52.45840 7.17547 94 ft 2 kts 274°
2026-04-21 14:06 52.45841 7.17556 95 ft 0 kts 225°
2026-04-21 14:06 52.45826 7.17562 96 ft 2 kts 139°
2026-04-21 14:07 52.45824 7.17565 96 ft 0 kts 130°
2026-04-21 14:07 52.45824 7.17566 95 ft 0 kts 130°
2026-04-21 14:08 52.45808 7.17582 94 ft 5 kts 120°
2026-04-21 14:08 52.45803 7.17632 94 ft 5 kts 95°
2026-04-21 14:08 52.45779 7.17696 94 ft 8 kts 147°
2026-04-21 14:08 52.45717 7.17646 94 ft 15 kts 214°
2026-04-21 14:09 52.45618 7.17578 92 ft 9 kts 194°
2026-04-21 14:09 52.45567 7.17585 93 ft 6 kts 148°
2026-04-21 14:09 52.45540 7.17616 96 ft 5 kts 133°
2026-04-21 14:09 52.45551 7.17672 95 ft 6 kts 55°
2026-04-21 14:10 52.45556 7.17695 95 ft 0 kts 101°
2026-04-21 14:14 52.45556 7.17696 95 ft 1 kts 104°
2026-04-21 14:14 52.45553 7.17705 96 ft 4 kts 130°
2026-04-21 14:14 52.45528 7.17757 98 ft 5 kts 62°
2026-04-21 14:14 52.45539 7.17777 96 ft 0 kts 54°
2026-04-21 14:15 52.45544 7.17789 97 ft 17 kts 54°
2026-04-21 14:15 52.45799 7.18386 151 ft 94 kts 55°
2026-04-21 14:15 52.46212 7.19375 574 ft 113 kts 56°
2026-04-21 14:15 52.46670 7.20462 1196 ft 111 kts 56°
2026-04-21 14:16 52.46852 7.21629 1716 ft 117 kts 100°
2026-04-21 14:16 52.46254 7.22646 2047 ft 129 kts 135°
2026-04-21 14:16 52.45642 7.23593 2559 ft 115 kts 115°
2026-04-21 14:16 52.45312 7.24731 3034 ft 111 kts 111°
2026-04-21 14:17 52.44931 7.25850 3446 ft 113 kts 113°
2026-04-21 14:17 52.44527 7.26975 3857 ft 115 kts 115°
2026-04-21 14:17 52.44093 7.28180 4006 ft 134 kts 116°
2026-04-21 14:17 52.43582 7.29559 4006 ft 148 kts 116°
2026-04-21 14:18 52.43041 7.31012 4009 ft 150 kts 116°
2026-04-21 14:18 52.42494 7.32476 4001 ft 152 kts 116°
2026-04-21 14:18 52.41949 7.33948 4003 ft 154 kts 115°
2026-04-21 14:18 52.41396 7.35451 4001 ft 155 kts 116°
2026-04-21 14:19 52.40837 7.36957 4001 ft 155 kts 116°
2026-04-21 14:19 52.40279 7.38455 4085 ft 149 kts 117°
2026-04-21 14:19 52.39757 7.39853 4439 ft 140 kts 116°
2026-04-21 14:19 52.39267 7.41175 4792 ft 132 kts 117°
2026-04-21 14:20 52.38794 7.42442 5139 ft 129 kts 117°
2026-04-21 14:20 52.38337 7.43679 5491 ft 126 kts 116°
2026-04-21 14:20 52.37882 7.44907 5844 ft 126 kts 116°
2026-04-21 14:20 52.37425 7.46133 6210 ft 127 kts 116°
2026-04-21 14:21 52.36959 7.47386 6582 ft 130 kts 116°
2026-04-21 14:21 52.36487 7.48651 6936 ft 131 kts 116°
2026-04-21 14:21 52.36010 7.49926 7286 ft 132 kts 116°
2026-04-21 14:21 52.35528 7.51212 7604 ft 136 kts 116°
2026-04-21 14:22 52.34996 7.52658 7458 ft 159 kts 116°
2026-04-21 14:22 52.34434 7.54291 7346 ft 166 kts 107°
2026-04-21 14:22 52.34209 7.55482 7346 ft 165 kts 103°
2026-04-21 14:22 52.33873 7.57277 7343 ft 165 kts 104°
2026-04-21 14:23 52.33528 7.59071 7346 ft 165 kts 104°
2026-04-21 14:23 52.33185 7.60870 7341 ft 166 kts 104°
2026-04-21 14:23 52.32840 7.62664 7344 ft 165 kts 104°
2026-04-21 14:23 52.32496 7.64464 7342 ft 166 kts 104°
2026-04-21 14:24 52.31982 7.66148 7332 ft 171 kts 131°
2026-04-21 14:24 52.30866 7.66894 7333 ft 184 kts 174°
2026-04-21 14:24 52.29646 7.66195 7332 ft 194 kts 216°
2026-04-21 14:24 52.28663 7.64672 7342 ft 195 kts 217°
2026-04-21 14:25 52.27574 7.63355 7346 ft 194 kts 210°
2026-04-21 14:25 52.26446 7.62150 7343 ft 193 kts 210°
2026-04-21 14:25 52.25320 7.60934 7239 ft 197 kts 210°
2026-04-21 14:25 52.24163 7.59671 7045 ft 202 kts 211°
2026-04-21 14:26 52.22986 7.58384 6855 ft 204 kts 211°
2026-04-21 14:26 52.21803 7.57093 6636 ft 206 kts 211°
2026-04-21 14:26 52.20613 7.55796 6423 ft 205 kts 211°
2026-04-21 14:26 52.19422 7.54500 6180 ft 207 kts 211°
2026-04-21 14:27 52.18224 7.53196 5923 ft 208 kts 211°
2026-04-21 14:27 52.17019 7.51885 5668 ft 208 kts 211°
2026-04-21 14:27 52.15815 7.50575 5411 ft 208 kts 211°
2026-04-21 14:27 52.14613 7.49270 5169 ft 206 kts 211°
2026-04-21 14:28 52.13443 7.47999 4899 ft 198 kts 211°
2026-04-21 14:28 52.12317 7.46778 4623 ft 192 kts 211°
2026-04-21 14:28 52.11228 7.45596 4218 ft 182 kts 211°
2026-04-21 14:28 52.10193 7.44472 3814 ft 176 kts 211°
2026-04-21 14:29 52.09191 7.43420 3416 ft 170 kts 204°
2026-04-21 14:29 52.08083 7.43236 3018 ft 156 kts 155°
2026-04-21 14:29 52.07437 7.44299 2981 ft 124 kts 98°
2026-04-21 14:29 52.07681 7.45486 2926 ft 119 kts 39°
2026-04-21 14:30 52.08397 7.46321 2818 ft 132 kts 45°
2026-04-21 14:30 52.08947 7.47504 2718 ft 132 kts 68°
2026-04-21 14:30 52.09288 7.48919 2544 ft 138 kts 67°
2026-04-21 14:30 52.09632 7.50426 2335 ft 146 kts 69°
2026-04-21 14:31 52.09984 7.52011 2128 ft 151 kts 69°
2026-04-21 14:31 52.10327 7.53658 1912 ft 157 kts 70°
2026-04-21 14:31 52.10669 7.55272 1693 ft 142 kts 70°
2026-04-21 14:31 52.10974 7.56717 1501 ft 128 kts 70°
2026-04-21 14:32 52.11251 7.58034 1333 ft 118 kts 68°
2026-04-21 14:32 52.11506 7.59241 1178 ft 109 kts 68°
2026-04-21 14:32 52.11746 7.60371 1035 ft 101 kts 69°
2026-04-21 14:32 52.11966 7.61421 897 ft 91 kts 66°
2026-04-21 14:33 52.12175 7.62384 780 ft 88 kts 65°
2026-04-21 14:33 52.12366 7.63298 672 ft 86 kts 66°
2026-04-21 14:33 52.12568 7.64244 555 ft 92 kts 66°
2026-04-21 14:33 52.12781 7.65259 426 ft 97 kts 69°
2026-04-21 14:34 52.13002 7.66301 295 ft 95 kts 70°
2026-04-21 14:34 52.13212 7.67283 165 ft 87 kts 70°
2026-04-21 14:34 52.13364 7.68009 162 ft 58 kts 71°
2026-04-21 14:34 52.13564 7.68949 286 ft 106 kts 70°
2026-04-21 14:35 52.13788 7.70091 837 ft 112 kts 71°
2026-04-21 14:35 52.14002 7.71450 1266 ft 129 kts 77°
2026-04-21 14:35 52.14170 7.72862 1809 ft 126 kts 76°
2026-04-21 14:35 52.14334 7.74229 2329 ft 120 kts 76°
2026-04-21 14:36 52.14827 7.75217 2828 ft 118 kts 20°
2026-04-21 14:36 52.15592 7.74805 3290 ft 131 kts 315°
2026-04-21 14:36 52.15981 7.73411 3694 ft 139 kts 296°
2026-04-21 14:36 52.16352 7.71918 4005 ft 150 kts 296°
2026-04-21 14:37 52.16779 7.70250 4016 ft 170 kts 297°
2026-04-21 14:37 52.17248 7.68401 4012 ft 182 kts 296°
2026-04-21 14:37 52.17724 7.66481 4011 ft 183 kts 296°
2026-04-21 14:37 52.18201 7.64554 4011 ft 184 kts 296°
2026-04-21 14:38 52.18685 7.62624 4010 ft 183 kts 296°
2026-04-21 14:38 52.19163 7.60698 4005 ft 184 kts 289°
2026-04-21 14:38 52.19124 7.58609 4002 ft 188 kts 257°
2026-04-21 14:38 52.18777 7.56561 4004 ft 187 kts 255°
2026-04-21 14:39 52.18423 7.54525 4009 ft 188 kts 255°
2026-04-21 14:39 52.18060 7.52462 3961 ft 191 kts 256°
2026-04-21 14:39 52.17693 7.50388 3837 ft 190 kts 255°
2026-04-21 14:39 52.17326 7.48309 3729 ft 192 kts 255°
2026-04-21 14:40 52.16962 7.46235 3594 ft 190 kts 255°
2026-04-21 14:40 52.16598 7.44175 3475 ft 189 kts 255°
2026-04-21 14:40 52.16228 7.42118 3332 ft 189 kts 255°
2026-04-21 14:40 52.15863 7.40076 3203 ft 187 kts 255°
2026-04-21 14:41 52.15498 7.38060 3075 ft 184 kts 252°
2026-04-21 14:41 52.14737 7.36444 3007 ft 180 kts 208°
2026-04-21 14:41 52.13584 7.36098 3006 ft 162 kts 167°
2026-04-21 14:41 52.12507 7.36356 3002 ft 153 kts 165°
2026-04-21 14:42 52.11466 7.36598 3010 ft 149 kts 165°
2026-04-21 14:42 52.10435 7.36850 3009 ft 151 kts 165°
2026-04-21 14:42 52.09392 7.37145 3004 ft 151 kts 157°
2026-04-21 14:42 52.08640 7.38171 3007 ft 141 kts 115°
2026-04-21 14:43 52.08155 7.39589 3018 ft 149 kts 113°
2026-04-21 14:43 52.07984 7.41184 3023 ft 143 kts 86°
2026-04-21 14:43 52.08107 7.42762 3023 ft 140 kts 72°
2026-04-21 14:43 52.08376 7.44275 3023 ft 139 kts 70°
2026-04-21 14:44 52.08677 7.45796 2936 ft 146 kts 70°
2026-04-21 14:44 52.08996 7.47376 2733 ft 147 kts 70°
2026-04-21 14:44 52.09332 7.48945 2532 ft 146 kts 69°
2026-04-21 14:44 52.09660 7.50490 2324 ft 142 kts 70°
2026-04-21 14:45 52.09983 7.52006 2123 ft 140 kts 70°
2026-04-21 14:45 52.10303 7.53516 1921 ft 143 kts 70°
2026-04-21 14:45 52.10617 7.55025 1724 ft 137 kts 70°
2026-04-21 14:45 52.10919 7.56454 1539 ft 130 kts 70°
2026-04-21 14:46 52.11210 7.57833 1364 ft 127 kts 69°
2026-04-21 14:46 52.11476 7.59097 1196 ft 108 kts 68°
2026-04-21 14:46 52.11703 7.60165 1063 ft 97 kts 69°
2026-04-21 14:46 52.11918 7.61185 932 ft 93 kts 66°
2026-04-21 14:47 52.12127 7.62176 812 ft 92 kts 66°
2026-04-21 14:47 52.12329 7.63127 684 ft 87 kts 67°
2026-04-21 14:47 52.12534 7.64089 574 ft 91 kts 66°
2026-04-21 14:47 52.12743 7.65072 453 ft 94 kts 69°
2026-04-21 14:48 52.12959 7.66091 327 ft 96 kts 69°
2026-04-21 14:48 52.13171 7.67093 208 ft 91 kts 70°
2026-04-21 14:48 52.13352 7.67948 162 ft 62 kts 71°
2026-04-21 14:48 52.13513 7.68712 170 ft 100 kts 70°
2026-04-21 14:49 52.13788 7.69917 522 ft 117 kts 64°
2026-04-21 14:49 52.14022 7.71153 1232 ft 114 kts 71°
2026-04-21 14:49 52.14247 7.72344 1894 ft 108 kts 70°
2026-04-21 14:49 52.14485 7.73535 2397 ft 112 kts 70°
2026-04-21 14:50 52.14661 7.74341 2754 ft 113 kts 69°
2026-04-21 14:50 52.15340 7.75466 3424 ft 116 kts
2026-04-21 14:50 52.16017 7.74744 3937 ft 128 kts 308°
2026-04-21 14:50 52.16547 7.73396 4014 ft 154 kts 309°
2026-04-21 14:51 52.17172 7.71869 4016 ft 168 kts 309°
2026-04-21 14:51 52.17828 7.70252 4012 ft 175 kts 308°
2026-04-21 14:51 52.18508 7.68583 4010 ft 177 kts 308°
2026-04-21 14:51 52.19197 7.66924 4011 ft 177 kts 308°
2026-04-21 14:52 52.19880 7.65252 4008 ft 177 kts 308°
2026-04-21 14:52 52.20565 7.63591 4010 ft 176 kts 308°
2026-04-21 14:52 52.21122 7.61799 4000 ft 184 kts 283°
2026-04-21 14:52 52.20962 7.59724 4001 ft 187 kts 253°
2026-04-21 14:53 52.20578 7.57702 4008 ft 187 kts 253°
2026-04-21 14:53 52.20196 7.55703 4008 ft 187 kts 253°
2026-04-21 14:53 52.19799 7.53679 4011 ft 188 kts 253°
2026-04-21 14:53 52.19397 7.51641 4007 ft 189 kts 253°
2026-04-21 14:54 52.19000 7.49606 4026 ft 188 kts 253°
2026-04-21 14:54 52.18601 7.47579 4025 ft 188 kts 253°
2026-04-21 14:54 52.18204 7.45542 4020 ft 188 kts 253°
2026-04-21 14:54 52.17809 7.43520 4023 ft 187 kts 253°
2026-04-21 14:55 52.17416 7.41503 4023 ft 186 kts 253°
2026-04-21 14:55 52.17027 7.39493 4021 ft 186 kts 253°
2026-04-21 14:55 52.16626 7.37502 4019 ft 185 kts 248°
2026-04-21 14:55 52.15790 7.35987 4005 ft 182 kts 204°
2026-04-21 14:56 52.14567 7.35693 3817 ft 178 kts 169°
2026-04-21 14:56 52.13345 7.35957 3643 ft 177 kts 167°
2026-04-21 14:56 52.12127 7.36233 3468 ft 176 kts 167°
2026-04-21 14:56 52.10913 7.36499 3285 ft 175 kts 167°
2026-04-21 14:57 52.09710 7.36777 3104 ft 174 kts 167°
2026-04-21 14:57 52.08516 7.37072 3005 ft 171 kts 167°
2026-04-21 14:57 52.07466 7.37735 2988 ft 158 kts 131°
2026-04-21 14:57 52.07088 7.39268 2990 ft 144 kts 82°
2026-04-21 14:58 52.07442 7.40748 2995 ft 141 kts 65°
2026-04-21 14:58 52.07831 7.42195 2994 ft 138 kts 66°
2026-04-21 14:58 52.08180 7.43642 2995 ft 137 kts 68°
2026-04-21 14:58 52.08507 7.45092 2992 ft 137 kts 68°
2026-04-21 14:59 52.08838 7.46596 2836 ft 146 kts 70°
2026-04-21 14:59 52.09166 7.48145 2635 ft 141 kts 70°
2026-04-21 14:59 52.09470 7.49582 2446 ft 132 kts 70°
2026-04-21 14:59 52.09762 7.50965 2256 ft 128 kts 69°
2026-04-21 15:00 52.10052 7.52340 2082 ft 128 kts 69°
2026-04-21 15:00 52.10338 7.53689 1903 ft 127 kts 69°
2026-04-21 15:00 52.10626 7.55050 1728 ft 127 kts 70°
2026-04-21 15:00 52.10916 7.56422 1550 ft 129 kts 70°
2026-04-21 15:01 52.11209 7.57808 1372 ft 128 kts 69°
2026-04-21 15:01 52.11489 7.59132 1199 ft 118 kts 69°
2026-04-21 15:01 52.11751 7.60370 1039 ft 117 kts 69°
2026-04-21 15:01 52.12037 7.61733 857 ft 126 kts 69°
2026-04-21 15:02 52.12304 7.63005 697 ft 108 kts 68°
2026-04-21 15:02 52.12523 7.64048 575 ft 93 kts 68°
2026-04-21 15:02 52.12733 7.65023 450 ft 88 kts 68°
2026-04-21 15:02 52.12933 7.65959 319 ft 89 kts 70°
2026-04-21 15:03 52.13136 7.66921 200 ft 89 kts 70°
2026-04-21 15:03 52.13313 7.67761 160 ft 62 kts 70°
2026-04-21 15:03 52.13394 7.68192 163 ft 21 kts 94°
2026-04-21 15:03 52.13307 7.68291 162 ft 15 kts 161°
2026-04-21 15:04 52.13203 7.68349 162 ft 18 kts 156°
2026-04-21 15:04 52.13117 7.68387 162 ft 9 kts 203°
2026-04-21 15:04 52.13105 7.68317 162 ft 0 kts 270°